�N����,����,�g�[���i�䏊�j���x,�g�[�����x,��g�[���i��Q���j���x,����
 2004/07/01, 0:00,30,60,29.4,25.1
 2004/07/01, 0:15,29.9,58,29.4,25.2
 2004/07/01, 0:30,29.8,57,29.3,25.3
 2004/07/01, 0:45,29.7,58,29.2,25.4
 2004/07/01, 1:00,29.8,58,29.1,25.4
 2004/07/01, 1:15,29.7,58,29.1,25.5
 2004/07/01, 1:30,29.7,59,29,25.5
 2004/07/01, 1:45,29.6,59,29,25.6
 2004/07/01, 2:00,29.6,59,28.9,25.6
 2004/07/01, 2:15,29.6,59,28.8,25.7
 2004/07/01, 2:30,29.4,60,28.8,25.7
 2004/07/01, 2:45,29.1,61,28.7,25.8
 2004/07/01, 3:00,29,62,28.7,25.8
 2004/07/01, 3:15,29.2,62,28.6,25.8
 2004/07/01, 3:30,29.4,60,28.6,25.8
 2004/07/01, 3:45,29.3,60,28.6,25.8
 2004/07/01, 4:00,29.4,60,28.5,25.8
 2004/07/01, 4:15,29.4,60,28.5,25.8
 2004/07/01, 4:30,29.4,60,28.4,25.9
 2004/07/01, 4:45,29.3,60,28.3,25.9
 2004/07/01, 5:00,29.2,60,28.3,25.9
 2004/07/01, 5:15,29.2,60,28.3,25.9
 2004/07/01, 5:30,29.1,60,28.2,25.9
 2004/07/01, 5:45,29.1,60,28.2,25.9
 2004/07/01, 6:00,29,61,28.2,25.9
 2004/07/01, 6:15,29,60,28.1,25.9
 2004/07/01, 6:30,29,60,28.1,25.9
 2004/07/01, 6:45,29,59,28,25.9
 2004/07/01, 7:00,29.1,59,27.8,24.6
 2004/07/01, 7:15,29.1,56,27.4,24
 2004/07/01, 7:30,29.2,56,27.6,24.4
 2004/07/01, 7:45,29.3,56,27.5,24.2
 2004/07/01, 8:00,29,55,27.5,24.2
 2004/07/01, 8:15,28.7,56,27.5,24.5
 2004/07/01, 8:30,28.6,56,27.6,24.7
 2004/07/01, 8:45,28.5,57,27.5,24.8
 2004/07/01, 9:00,28.3,56,27.5,24.9
 2004/07/01, 9:15,28.4,56,27.4,24.9
 2004/07/01, 9:30,28.4,58,27.5,25
 2004/07/01, 9:45,28.4,57,27.5,24.6
 2004/07/01,10:00,28.4,56,27.6,24.2
 2004/07/01,10:15,28.4,57,27.7,24.4
 2004/07/01,10:30,28.6,57,27.8,24.5
 2004/07/01,10:45,28.6,58,27.9,24.6
 2004/07/01,11:00,28.6,57,28,24.7
 2004/07/01,11:15,28.6,58,28.1,24.8
 2004/07/01,11:30,28.7,58,28.2,24.8
 2004/07/01,11:45,28.8,57,28.3,24.9
 2004/07/01,12:00,28.8,55,28.3,25.1
 2004/07/01,12:15,28.9,56,28.5,25.2
 2004/07/01,12:30,29,55,28.5,25.3
 2004/07/01,12:45,29.1,54,28.6,25.3
 2004/07/01,13:00,29.2,54,28.7,25.4
 2004/07/01,13:15,29.4,54,28.8,25.5
 2004/07/01,13:30,29.5,51,28.9,25.5
 2004/07/01,13:45,29.5,50,29,25.6
 2004/07/01,14:00,29.4,48,29.1,25.7
 2004/07/01,14:15,29.3,47,29.2,25
 2004/07/01,14:30,29.4,48,29.4,25.2
 2004/07/01,14:45,29.8,48,29.5,25.3
 2004/07/01,15:00,30.1,48,29.7,25.4
 2004/07/01,15:15,30.2,48,29.8,24.8
 2004/07/01,15:30,30.3,46,29.9,24.9
 2004/07/01,15:45,30.5,46,29.9,25
 2004/07/01,16:00,30.7,45,30,24.8
 2004/07/01,16:15,31,46,30.2,25
 2004/07/01,16:30,30.8,45,30.3,25.2
 2004/07/01,16:45,30.8,46,30.4,24.8
 2004/07/01,17:00,31,46,30.6,25
 2004/07/01,17:15,31.1,47,30.8,25.2
 2004/07/01,17:30,31.2,46,30.8,25.3
 2004/07/01,17:45,31.5,45,31,24.9
 2004/07/01,18:00,31.6,44,31,23.9
 2004/07/01,18:15,31.8,45,31,24.9
 2004/07/01,18:30,31.7,42,30.8,25.1
 2004/07/01,18:45,31.9,43,30.7,24.4
 2004/07/01,19:00,31.2,43,30.5,24.6
 2004/07/01,19:15,31,45,30.2,24.9
 2004/07/01,19:30,30.7,46,30.1,23.9
 2004/07/01,19:45,30.5,45,29.8,24.7
 2004/07/01,20:00,30.4,48,29.7,24.9
 2004/07/01,20:15,30.2,48,29.6,24.6
 2004/07/01,20:30,30,47,29.4,24.5
 2004/07/01,20:45,30,47,29.4,24.7
 2004/07/01,21:00,29.9,46,29.2,24.6
 2004/07/01,21:15,30.3,46,29.2,24.5
 2004/07/01,21:30,30.1,45,29,24.7
 2004/07/01,21:45,29.8,46,28.9,24.8
 2004/07/01,22:00,29.7,48,28.7,24.3
 2004/07/01,22:15,29.6,51,28.6,24.6
 2004/07/01,22:30,29.3,50,28.5,24.6
 2004/07/01,22:45,29,51,28.4,24.5
 2004/07/01,23:00,29,53,28.3,24.6
 2004/07/01,23:15,28.8,54,28.3,24.7
 2004/07/01,23:30,29,54,28.3,24.5
 2004/07/01,23:45,28.9,55,28.2,23.9
 2004/07/02, 0:00,28.6,54,27.1,24.5
 2004/07/02, 0:15,28.7,55,27.7,24.5
 2004/07/02, 0:30,28.8,55,28,24.6
 2004/07/02, 0:45,28.6,55,28,24.6
 2004/07/02, 1:00,28.3,55,27.9,24.6
 2004/07/02, 1:15,28.2,56,27.9,24.4
 2004/07/02, 1:30,28.2,57,27.9,24.5
 2004/07/02, 1:45,28.1,56,27.9,24.5
 2004/07/02, 2:00,27.9,56,27.8,24.5
 2004/07/02, 2:15,27.7,56,27.7,24.5
 2004/07/02, 2:30,27.8,56,27.6,24.4
 2004/07/02, 2:45,27.6,56,27.6,24.4
 2004/07/02, 3:00,27.5,57,27.5,24.4
 2004/07/02, 3:15,27.5,56,27.5,24.4
 2004/07/02, 3:30,27.3,56,27.4,24.4
 2004/07/02, 3:45,27.2,56,27.3,24.4
 2004/07/02, 4:00,27.2,57,27.3,24.3
 2004/07/02, 4:15,27.1,57,27.2,24.3
 2004/07/02, 4:30,27,57,27.2,24.3
 2004/07/02, 4:45,27,58,27.1,24.3
 2004/07/02, 5:00,27,59,27,24.3
 2004/07/02, 5:15,26.9,59,26.9,24.2
 2004/07/02, 5:30,26.8,60,26.9,24.2
 2004/07/02, 5:45,26.8,60,26.8,24.2
 2004/07/02, 6:00,26.8,60,26.8,24.2
 2004/07/02, 6:15,26.8,59,26.7,24
 2004/07/02, 6:30,26.6,58,26.7,24
 2004/07/02, 6:45,26.5,58,26.6,24
 2004/07/02, 7:00,27,58,26.6,23.9
 2004/07/02, 7:15,27.1,56,26.6,23.8
 2004/07/02, 7:30,27.4,60,26.5,23.9
 2004/07/02, 7:45,27.6,62,26.5,23.6
 2004/07/02, 8:00,27.6,61,26.6,24
 2004/07/02, 8:15,27.6,61,26.7,24.1
 2004/07/02, 8:30,28,61,26.7,24.1
 2004/07/02, 8:45,28.1,62,26.7,24.2
 2004/07/02, 9:00,28,61,26.8,24.1
 2004/07/02, 9:15,28,62,26.9,24.2
 2004/07/02, 9:30,28.2,64,26.7,24.2
 2004/07/02, 9:45,28.3,64,26.8,24.3
 2004/07/02,10:00,28.2,65,26.9,24.3
 2004/07/02,10:15,28.1,64,27,23.6
 2004/07/02,10:30,28.1,64,27.1,24.1
 2004/07/02,10:45,28.3,65,27.4,24.1
 2004/07/02,11:00,28.3,64,27.4,24.3
 2004/07/02,11:15,28.3,64,27.7,24.4
 2004/07/02,11:30,28.5,65,27.8,24.5
 2004/07/02,11:45,28.6,64,28,24.6
 2004/07/02,12:00,28.8,64,28,24.7
 2004/07/02,12:15,28.9,63,28.4,24.7
 2004/07/02,12:30,29.1,62,28.7,24.8
 2004/07/02,12:45,29.4,59,29,24.3
 2004/07/02,13:00,29.6,56,29.3,24.5
 2004/07/02,13:15,29.7,56,29.6,24.1
 2004/07/02,13:30,30,54,29.7,24.4
 2004/07/02,13:45,29.8,54,30.2,24.6
 2004/07/02,14:00,30.2,55,30.3,24.7
 2004/07/02,14:15,30.2,56,30.3,24.4
 2004/07/02,14:30,30.4,55,30.9,24.6
 2004/07/02,14:45,30.5,55,31.1,24.8
 2004/07/02,15:00,30.6,55,31.1,24.9
 2004/07/02,15:15,30.7,56,31.3,25.1
 2004/07/02,15:30,31,55,31.3,25.2
 2004/07/02,15:45,31,54,31.4,25.3
 2004/07/02,16:00,31,54,31.4,25.5
 2004/07/02,16:15,31,54,31,23.8
 2004/07/02,16:30,30.7,55,31.3,23.8
 2004/07/02,16:45,30.8,56,31.1,25
 2004/07/02,17:00,31.2,57,30.9,24.8
 2004/07/02,17:15,31.4,53,30.6,25.1
 2004/07/02,17:30,31.4,55,30.5,25.3
 2004/07/02,17:45,31.5,55,30.6,25.4
 2004/07/02,18:00,31.8,54,30.5,25.5
 2004/07/02,18:15,31.8,52,30.3,25.6
 2004/07/02,18:30,31.7,53,30.1,25.4
 2004/07/02,18:45,31.8,55,29.9,25.6
 2004/07/02,19:00,31.7,55,29.8,24.3
 2004/07/02,19:15,31.7,55,30,25.4
 2004/07/02,19:30,31.6,56,29.8,25.6
 2004/07/02,19:45,31.5,56,29.8,25.3
 2004/07/02,20:00,31.2,56,29.7,25.2
 2004/07/02,20:15,31,55,29.7,24.7
 2004/07/02,20:30,30.7,57,29.7,25.3
 2004/07/02,20:45,30.6,58,29.6,25.5
 2004/07/02,21:00,30.3,57,29.3,25.2
 2004/07/02,21:15,30.2,55,29.4,25
 2004/07/02,21:30,29.8,56,29.3,24.7
 2004/07/02,21:45,29.7,54,29.4,25.2
 2004/07/02,22:00,29.4,55,29.3,24.5
 2004/07/02,22:15,29.6,48,29.2,25.2
 2004/07/02,22:30,29.7,46,29.2,24.9
 2004/07/02,22:45,29.7,45,29.1,25.1
 2004/07/02,23:00,29.7,47,29,25.2
 2004/07/02,23:15,29.7,46,28.9,25.3
 2004/07/02,23:30,29.5,46,28.8,25.3
 2004/07/02,23:45,29.4,48,28.7,25.3
 2004/07/03, 0:00,29.3,47,28.7,25.3
 2004/07/03, 0:15,29.1,47,28.6,24.9
 2004/07/03, 0:30,28.9,48,28.5,24.9
 2004/07/03, 0:45,28.8,55,28.5,25
 2004/07/03, 1:00,28.8,59,28.5,25
 2004/07/03, 1:15,28.6,63,28.5,25.1
 2004/07/03, 1:30,28.5,65,28.3,25.2
 2004/07/03, 1:45,28.6,66,28.2,25.2
 2004/07/03, 2:00,28.8,65,28.2,25.3
 2004/07/03, 2:15,28.8,65,28.3,25.3
 2004/07/03, 2:30,28.9,65,28.3,25.3
 2004/07/03, 2:45,29,65,28.3,25.4
 2004/07/03, 3:00,29.1,64,28.3,25.4
 2004/07/03, 3:15,29,65,28.3,25.5
 2004/07/03, 3:30,28.8,65,28.1,25.5
 2004/07/03, 3:45,28.9,65,28,25.5
 2004/07/03, 4:00,28.8,65,27.9,25.5
 2004/07/03, 4:15,28.9,65,27.9,25.5
 2004/07/03, 4:30,28.9,65,27.8,25.5
 2004/07/03, 4:45,28.8,64,27.9,25.5
 2004/07/03, 5:00,28.8,65,27.9,25.5
 2004/07/03, 5:15,28.7,65,27.8,25.5
 2004/07/03, 5:30,28.7,65,27.9,25.5
 2004/07/03, 5:45,28.6,65,27.9,25.5
 2004/07/03, 6:00,28.6,65,27.9,25.5
 2004/07/03, 6:15,28.5,65,27.8,25.5
 2004/07/03, 6:30,28.5,65,27.6,25.5
 2004/07/03, 6:45,28.4,66,27.2,25.5
 2004/07/03, 7:00,28.5,66,27.4,24.8
 2004/07/03, 7:15,28.4,66,27.5,24.6
 2004/07/03, 7:30,28.9,68,27.5,24.6
 2004/07/03, 7:45,29.1,68,27.5,24.4
 2004/07/03, 8:00,29.4,66,27.6,24.5
 2004/07/03, 8:15,29.5,66,27.7,24.7
 2004/07/03, 8:30,29.6,65,27.8,24.8
 2004/07/03, 8:45,29.7,63,28,24.9
 2004/07/03, 9:00,29.8,63,28.2,25
 2004/07/03, 9:15,30,62,28.2,24.8
 2004/07/03, 9:30,30.4,62,28.4,24.8
 2004/07/03, 9:45,30.4,62,28.3,24.6
 2004/07/03,10:00,30.2,62,28.4,24.9
 2004/07/03,10:15,30.1,61,28.6,25
 2004/07/03,10:30,30.2,62,28.8,25.2
 2004/07/03,10:45,30.2,62,29,25.3
 2004/07/03,11:00,30.1,61,29.2,25.4
 2004/07/03,11:15,30.2,60,29.4,25.5
 2004/07/03,11:30,30.5,59,29.7,24.1
 2004/07/03,11:45,30.7,59,29.9,25
 2004/07/03,12:00,31.1,60,30,25.2
 2004/07/03,12:15,31.4,59,30.3,25.2
 2004/07/03,12:30,31.5,57,30.4,25.5
 2004/07/03,12:45,31.7,55,30.6,25.7
 2004/07/03,13:00,31.7,57,31.1,25.4
 2004/07/03,13:15,31.6,55,31.3,25.3
 2004/07/03,13:30,31.7,56,31.6,25
 2004/07/03,13:45,32.1,54,31.7,25.5
 2004/07/03,14:00,32.2,52,32,25.7
 2004/07/03,14:15,32.1,53,32.3,25.9
 2004/07/03,14:30,32.4,53,32.4,26
 2004/07/03,14:45,32.7,51,32.8,26.2
 2004/07/03,15:00,32.9,51,33,26.3
 2004/07/03,15:15,32.7,51,33.3,26.4
 2004/07/03,15:30,32.7,51,33.3,25.6
 2004/07/03,15:45,33.1,52,33.5,25.8
 2004/07/03,16:00,33.4,50,33.5,26.1
 2004/07/03,16:15,33.4,51,33.9,26.3
 2004/07/03,16:30,33.7,52,34.1,24.7
 2004/07/03,16:45,34,50,34.3,25.8
 2004/07/03,17:00,34.2,50,34.5,26.2
 2004/07/03,17:15,34.6,49,34.5,26.4
 2004/07/03,17:30,34.6,47,34.5,26.7
 2004/07/03,17:45,34.5,45,34.5,26.9
 2004/07/03,18:00,34.5,46,34.2,25
 2004/07/03,18:15,34.6,50,34.2,26.3
 2004/07/03,18:30,34.4,51,34.1,26.6
 2004/07/03,18:45,34.2,48,33.8,26.8
 2004/07/03,19:00,33.7,43,33.4,26.9
 2004/07/03,19:15,33.3,41,33.3,26
 2004/07/03,19:30,33.1,43,32.8,26.4
 2004/07/03,19:45,32.8,41,32.9,24.7
 2004/07/03,20:00,32.5,38,32.8,26.2
 2004/07/03,20:15,32,38,32.8,25.3
 2004/07/03,20:30,31.5,36,32.6,26.1
 2004/07/03,20:45,31,35,32.5,26.4
 2004/07/03,21:00,30.7,35,32.3,26.6
 2004/07/03,21:15,30.8,37,32.2,26.2
 2004/07/03,21:30,30.8,37,32,26.3
 2004/07/03,21:45,30.7,36,31.9,25.9
 2004/07/03,22:00,30.8,41,31.7,25.8
 2004/07/03,22:15,31,48,31.6,26.1
 2004/07/03,22:30,31,54,31.5,26.3
 2004/07/03,22:45,30.8,47,31.4,26.4
 2004/07/03,23:00,30.3,41,31.2,24.6
 2004/07/03,23:15,30,38,31,25.8
 2004/07/03,23:30,29.8,39,30.9,25.9
 2004/07/03,23:45,30.3,48,30.8,26
 2004/07/04, 0:00,30.5,53,30.7,26
 2004/07/04, 0:15,30.5,57,30.6,26
 2004/07/04, 0:30,30.7,59,30,25.8
 2004/07/04, 0:45,30.7,58,29.2,25.9
 2004/07/04, 1:00,30.6,58,28.4,26
 2004/07/04, 1:15,30.7,59,29.3,26.1
 2004/07/04, 1:30,30.7,59,29.5,26.2
 2004/07/04, 1:45,30.6,59,29.6,26.2
 2004/07/04, 2:00,30.5,60,29.7,26.3
 2004/07/04, 2:15,30.6,60,29.7,26.4
 2004/07/04, 2:30,30.5,60,28.8,26.4
 2004/07/04, 2:45,30.4,60,28.1,26.5
 2004/07/04, 3:00,30.4,60,27.9,26.5
 2004/07/04, 3:15,30.3,60,28,26.5
 2004/07/04, 3:30,30.2,60,27.5,26.5
 2004/07/04, 3:45,30.2,61,27.6,26.6
 2004/07/04, 4:00,30.2,60,27.4,26.6
 2004/07/04, 4:15,30.2,60,27.5,26.6
 2004/07/04, 4:30,30,61,27.5,26.6
 2004/07/04, 4:45,30.1,61,27.7,26.6
 2004/07/04, 5:00,30.1,60,27.9,26.6
 2004/07/04, 5:15,30,60,27.9,26.6
 2004/07/04, 5:30,29.9,61,28,25.8
 2004/07/04, 5:45,30,60,28,25.9
 2004/07/04, 6:00,29.9,60,28,26
 2004/07/04, 6:15,29.7,61,28.1,26.1
 2004/07/04, 6:30,29.9,61,28.1,26.2
 2004/07/04, 6:45,29.9,61,28.3,26.3
 2004/07/04, 7:00,29.8,61,28.3,25.3
 2004/07/04, 7:15,29.8,63,28.5,25.9
 2004/07/04, 7:30,30,63,28.6,25.1
 2004/07/04, 7:45,30.1,63,28.7,25.6
 2004/07/04, 8:00,30.1,63,28.8,25.8
 2004/07/04, 8:15,30.2,64,28.9,26
 2004/07/04, 8:30,30.4,63,29,26.1
 2004/07/04, 8:45,30.3,62,29.1,25.3
 2004/07/04, 9:00,30.3,62,29.3,25.8
 2004/07/04, 9:15,30.4,62,29.4,24.9
 2004/07/04, 9:30,30.5,62,29.6,25.8
 2004/07/04, 9:45,30.6,61,29.8,25.1
 2004/07/04,10:00,30.5,62,29.9,25.8
 2004/07/04,10:15,30.8,61,30.2,26.1
 2004/07/04,10:30,31,60,30.4,26.3
 2004/07/04,10:45,31.1,60,30.6,26.4
 2004/07/04,11:00,31.2,59,30.9,25.8
 2004/07/04,11:15,31.4,56,30.9,26.4
 2004/07/04,11:30,31.4,54,31.1,26.6
 2004/07/04,11:45,31.3,52,31.2,26.8
 2004/07/04,12:00,31.5,50,31.4,26.9
 2004/07/04,12:15,31.5,51,31.6,27
 2004/07/04,12:30,31.6,51,31.7,27.1
 2004/07/04,12:45,31.6,53,31.8,27.2
 2004/07/04,13:00,32.1,53,32,27.3
 2004/07/04,13:15,32.2,49,32.1,26.4
 2004/07/04,13:30,32,48,32.3,25.9
 2004/07/04,13:45,31.6,44,32.1,26.1
 2004/07/04,14:00,31.5,44,30.7,25.5
 2004/07/04,14:15,31.1,42,29.7,26.2
 2004/07/04,14:30,30.9,40,28.5,26.5
 2004/07/04,14:45,30.7,41,30.3,26.6
 2004/07/04,15:00,30.4,39,30.8,26.8
 2004/07/04,15:15,30.5,43,31.1,26.9
 2004/07/04,15:30,30.5,49,30.9,26.8
 2004/07/04,15:45,30.8,53,28.9,24.9
 2004/07/04,16:00,30.8,55,28.5,26.1
 2004/07/04,16:15,30.7,59,28.6,26.3
 2004/07/04,16:30,30.8,59,28.5,26.4
 2004/07/04,16:45,30.9,59,28.2,26.6
 2004/07/04,17:00,31.2,59,29.5,26.6
 2004/07/04,17:15,31.4,59,29.6,26.7
 2004/07/04,17:30,31.7,59,29.6,26.9
 2004/07/04,17:45,31.5,58,29.7,27
 2004/07/04,18:00,31.7,57,29.7,27
 2004/07/04,18:15,31.7,57,29.7,27
 2004/07/04,18:30,31.7,56,29.6,27
 2004/07/04,18:45,31.7,57,29.5,27
 2004/07/04,19:00,31.6,58,29.5,27
 2004/07/04,19:15,31.5,57,29.4,26.9
 2004/07/04,19:30,31.4,60,29,26.1
 2004/07/04,19:45,31.5,60,29,26
 2004/07/04,20:00,31.5,60,29.2,26.2
 2004/07/04,20:15,31.3,59,29.1,25.8
 2004/07/04,20:30,31.1,59,29.2,25.6
 2004/07/04,20:45,31,58,29,26
 2004/07/04,21:00,31.1,60,29,26.2
 2004/07/04,21:15,31.2,60,29.2,25.9
 2004/07/04,21:30,31.1,60,29.2,26.1
 2004/07/04,21:45,30.8,60,29.3,25.9
 2004/07/04,22:00,30.9,64,29.4,26.1
 2004/07/04,22:15,31.2,63,29.6,26.3
 2004/07/04,22:30,31.2,61,29.7,26.3
 2004/07/04,22:45,31.4,63,29.3,26
 2004/07/04,23:00,31.4,62,29.2,26.2
 2004/07/04,23:15,31.5,63,29.1,26.3
 2004/07/04,23:30,31.3,61,29.1,25.7
 2004/07/04,23:45,31.1,60,27.3,26.1
 2004/07/05, 0:00,31.1,61,26.7,26.3
 2004/07/05, 0:15,31.1,62,26.9,26.4
 2004/07/05, 0:30,31.1,61,27.8,26.5
 2004/07/05, 0:45,31,62,28,26.6
 2004/07/05, 1:00,30.9,62,28.2,26.6
 2004/07/05, 1:15,31,61,28.3,26.7
 2004/07/05, 1:30,30.9,61,28.4,26.7
 2004/07/05, 1:45,30.8,62,28.5,26.8
 2004/07/05, 2:00,30.8,62,28.6,26.8
 2004/07/05, 2:15,30.7,60,28.7,26.1
 2004/07/05, 2:30,30.6,61,28.7,26.2
 2004/07/05, 2:45,30.6,61,28.8,26.3
 2004/07/05, 3:00,30.5,61,28.8,26.4
 2004/07/05, 3:15,30.5,62,28.9,26.5
 2004/07/05, 3:30,30.5,62,28.9,26.5
 2004/07/05, 3:45,30.4,62,29,26.6
 2004/07/05, 4:00,30.4,62,29,26.6
 2004/07/05, 4:15,30.3,62,29,26.7
 2004/07/05, 4:30,30.3,62,29.1,26.7
 2004/07/05, 4:45,30.2,62,29,26.7
 2004/07/05, 5:00,30.2,62,29.1,26.8
 2004/07/05, 5:15,30.2,63,29.1,26.8
 2004/07/05, 5:30,30.2,64,29.1,26.8
 2004/07/05, 5:45,30.2,63,29.1,25.9
 2004/07/05, 6:00,30.1,63,29.1,26.1
 2004/07/05, 6:15,30,63,29.2,26.3
 2004/07/05, 6:30,30.1,63,29.2,26.3
 2004/07/05, 6:45,30.7,62,29.1,26.4
 2004/07/05, 7:00,31,60,29.1,25.8
 2004/07/05, 7:15,31.4,59,29.1,24.8
 2004/07/05, 7:30,31.6,60,29.1,25.4
 2004/07/05, 7:45,31.6,59,29.2,25.2
 2004/07/05, 8:00,31.6,58,29.2,25.8
 2004/07/05, 8:15,31.3,57,29.4,25.3
 2004/07/05, 8:30,31.2,57,29.4,25.8
 2004/07/05, 8:45,31.1,59,29.4,26
 2004/07/05, 9:00,31,61,29.5,26.1
 2004/07/05, 9:15,31,62,29.6,26.2
 2004/07/05, 9:30,31,61,29.7,26.3
 2004/07/05, 9:45,30.9,63,29.7,26.4
 2004/07/05,10:00,30.9,63,29.8,26.5
 2004/07/05,10:15,30.9,61,29.8,26.7
 2004/07/05,10:30,31.1,60,30,25.8
 2004/07/05,10:45,31,60,30,26.2
 2004/07/05,11:00,30.9,63,30.1,26.3
 2004/07/05,11:15,30.9,62,30.1,26.3
 2004/07/05,11:30,30.8,63,30.1,26.4
 2004/07/05,11:45,31,63,30.1,26.5
 2004/07/05,12:00,31.1,61,30.1,26.5
 2004/07/05,12:15,31.2,61,30.2,26.6
 2004/07/05,12:30,31.1,61,30.3,26.6
 2004/07/05,12:45,31.1,60,30.4,25.8
 2004/07/05,13:00,31.3,58,30.5,26
 2004/07/05,13:15,31.3,57,30.6,25.7
 2004/07/05,13:30,31.5,58,30.8,26
 2004/07/05,13:45,31.5,57,31,26.2
 2004/07/05,14:00,31.4,56,31.1,26.3
 2004/07/05,14:15,31.4,56,31.3,26.4
 2004/07/05,14:30,31.2,56,31.4,26.5
 2004/07/05,14:45,31.6,55,31.5,26.6
 2004/07/05,15:00,31.8,55,31.6,26.7
 2004/07/05,15:15,31.9,54,31.6,26.8
 2004/07/05,15:30,32,53,31.8,26.3
 2004/07/05,15:45,32.1,53,32,26.5
 2004/07/05,16:00,32.2,53,32.1,26.6
 2004/07/05,16:15,32.2,54,32.2,26.7
 2004/07/05,16:30,32.2,54,32.3,26.8
 2004/07/05,16:45,32.6,52,32.4,26.9
 2004/07/05,17:00,32.7,52,32.5,27
 2004/07/05,17:15,32.9,51,32.5,27.1
 2004/07/05,17:30,33,52,32.6,26.3
 2004/07/05,17:45,33.1,50,32.6,26.2
 2004/07/05,18:00,33,50,32.5,26.1
 2004/07/05,18:15,32.8,50,32.4,26.4
 2004/07/05,18:30,33.1,51,32.3,26.5
 2004/07/05,18:45,33.3,50,32,26.7
 2004/07/05,19:00,33.1,50,31.8,26.4
 2004/07/05,19:15,33,50,31.4,26.6
 2004/07/05,19:30,33.1,54,31.3,26.8
 2004/07/05,19:45,33,53,31.2,26.9
 2004/07/05,20:00,32.8,52,31.1,27
 2004/07/05,20:15,32.7,53,30.8,26.2
 2004/07/05,20:30,32.6,53,28.6,25.2
 2004/07/05,20:45,32.4,53,28.7,26.3
 2004/07/05,21:00,32.4,53,28.8,26.5
 2004/07/05,21:15,32.4,53,28.1,26.3
 2004/07/05,21:30,32.3,52,28,26.2
 2004/07/05,21:45,31.6,45,28.3,26.5
 2004/07/05,22:00,31,43,28.2,26.6
 2004/07/05,22:15,30.5,43,27.7,26.7
 2004/07/05,22:30,30.6,42,27.9,25.9
 2004/07/05,22:45,30.5,40,27.6,26.4
 2004/07/05,23:00,30.6,46,28,26.5
 2004/07/05,23:15,30.7,52,28.3,26.6
 2004/07/05,23:30,30.8,54,28.4,26.6
 2004/07/05,23:45,30.8,56,28.6,26.7
 2004/07/06, 0:00,30.7,57,28.6,26.7
 2004/07/06, 0:15,30.7,57,28.6,26.7
 2004/07/06, 0:30,30.7,57,28.6,26.7
 2004/07/06, 0:45,30.7,56,28.6,26.8
 2004/07/06, 1:00,30.7,56,28.6,26.8
 2004/07/06, 1:15,30.7,56,28.5,26.8
 2004/07/06, 1:30,30.6,56,28.5,26.8
 2004/07/06, 1:45,30.5,57,28.5,26.8
 2004/07/06, 2:00,30.5,57,28.4,26.8
 2004/07/06, 2:15,30.5,57,28.3,26.8
 2004/07/06, 2:30,30.5,58,28.3,26.8
 2004/07/06, 2:45,30.5,58,28.3,26.7
 2004/07/06, 3:00,30.4,58,28.2,26.7
 2004/07/06, 3:15,30.3,58,28.2,26.7
 2004/07/06, 3:30,30.2,58,28.1,26.7
 2004/07/06, 3:45,30.2,59,28.2,26.7
 2004/07/06, 4:00,30.1,58,28.2,26.7
 2004/07/06, 4:15,30.1,58,28.2,26.6
 2004/07/06, 4:30,29.9,59,28.2,26.6
 2004/07/06, 4:45,30,59,28.2,26.6
 2004/07/06, 5:00,29.9,59,28.1,26.5
 2004/07/06, 5:15,29.8,59,28.1,26.5
 2004/07/06, 5:30,29.7,59,28,26.5
 2004/07/06, 5:45,29.7,59,28.1,26.5
 2004/07/06, 6:00,29.7,59,28,26.5
 2004/07/06, 6:15,29.6,59,28,25.6
 2004/07/06, 6:30,29.4,59,27.9,25.8
 2004/07/06, 6:45,29.4,61,28,24.9
 2004/07/06, 7:00,29.9,62,28,25.2
 2004/07/06, 7:15,30.2,60,28.1,25.7
 2004/07/06, 7:30,30.4,64,28.1,25.8
 2004/07/06, 7:45,30.4,61,28.2,26.1
 2004/07/06, 8:00,30.5,61,28.3,26.2
 2004/07/06, 8:15,30.6,61,28.3,26.3
 2004/07/06, 8:30,30.6,60,28.5,25.7
 2004/07/06, 8:45,30.5,60,28.4,26.1
 2004/07/06, 9:00,30.5,59,28.4,26.2
 2004/07/06, 9:15,30.6,58,28.5,26.3
 2004/07/06, 9:30,30.8,58,28.7,26.4
 2004/07/06, 9:45,30.6,57,28.7,26.5
 2004/07/06,10:00,30.5,53,28.8,26.6
 2004/07/06,10:15,30.7,54,29,26.7
 2004/07/06,10:30,30.7,51,29.1,26.8
 2004/07/06,10:45,30.8,52,29.3,26.9
 2004/07/06,11:00,31,52,29.5,27
 2004/07/06,11:15,31,52,29.8,27
 2004/07/06,11:30,31.1,52,29.9,27.1
 2004/07/06,11:45,31.2,52,30.3,25.5
 2004/07/06,12:00,31.5,51,30.3,26.5
 2004/07/06,12:15,31.6,50,30.7,26.7
 2004/07/06,12:30,31.8,48,31,26.8
 2004/07/06,12:45,31.9,49,31.2,26.9
 2004/07/06,13:00,31.9,51,31.4,27
 2004/07/06,13:15,32,51,31.6,27.1
 2004/07/06,13:30,32,50,31.9,27.2
 2004/07/06,13:45,32.1,51,32.3,27.2
 2004/07/06,14:00,32.3,51,32.6,26.2
 2004/07/06,14:15,32.4,50,32.9,26.5
 2004/07/06,14:30,32.7,50,33,26.7
 2004/07/06,14:45,32.9,50,33,26.8
 2004/07/06,15:00,32.7,51,33.5,26.9
 2004/07/06,15:15,32.8,50,33.5,26
 2004/07/06,15:30,33.2,47,33.6,26.7
 2004/07/06,15:45,33.4,46,33.5,26.9
 2004/07/06,16:00,33.3,45,33.9,27.1
 2004/07/06,16:15,33.5,44,34,27.3
 2004/07/06,16:30,33.7,43,33.9,26.4
 2004/07/06,16:45,33.8,44,33.9,26.2
 2004/07/06,17:00,34,44,34,26.6
 2004/07/06,17:15,34.5,45,34.1,26
 2004/07/06,17:30,34.6,41,34,26.6
 2004/07/06,17:45,34.8,41,34,26.8
 2004/07/06,18:00,34.6,40,34,27
 2004/07/06,18:15,34.1,42,33.9,25.5
 2004/07/06,18:30,34,41,33.7,26.9
 2004/07/06,18:45,34.2,43,33.4,27.1
 2004/07/06,19:00,34.6,44,33.1,26.6
 2004/07/06,19:15,34.6,42,32.7,26.9
 2004/07/06,19:30,34.7,44,32.5,27.2
 2004/07/06,19:45,34.6,45,32.1,26.8
 2004/07/06,20:00,33.9,40,31.8,27.2
 2004/07/06,20:15,33.5,40,31.7,27.4
 2004/07/06,20:30,33.3,39,31.7,27.4
 2004/07/06,20:45,32.9,41,31.6,27.5
 2004/07/06,21:00,32.5,39,31.6,27.6
 2004/07/06,21:15,32.1,40,31.6,27.6
 2004/07/06,21:30,31.7,41,31.5,26.4
 2004/07/06,21:45,31.2,44,31.4,27
 2004/07/06,22:00,31.1,43,31.3,27.2
 2004/07/06,22:15,30.8,49,31.2,27.3
 2004/07/06,22:30,30.3,51,31.1,27.4
 2004/07/06,22:45,30.1,56,30.9,26.8
 2004/07/06,23:00,30.6,58,30.7,27.1
 2004/07/06,23:15,30.9,59,30.6,27.2
 2004/07/06,23:30,30.9,60,29.7,27.3
 2004/07/06,23:45,31,62,29.6,27.3
 2004/07/07, 0:00,31.1,60,30.1,27.4
 2004/07/07, 0:15,31.2,60,30.3,27.4
 2004/07/07, 0:30,31.2,60,30.1,27.4
 2004/07/07, 0:45,31,59,29.3,27.5
 2004/07/07, 1:00,31,59,29.5,26.8
 2004/07/07, 1:15,31.1,58,29,27
 2004/07/07, 1:30,31.1,58,29.2,27
 2004/07/07, 1:45,31.1,57,28.8,27.1
 2004/07/07, 2:00,31,58,28.9,27.1
 2004/07/07, 2:15,30.9,58,28.8,27.2
 2004/07/07, 2:30,31,58,28.7,27.2
 2004/07/07, 2:45,31,58,28.8,27.2
 2004/07/07, 3:00,30.8,59,28.7,27.3
 2004/07/07, 3:15,30.8,59,28.7,27.3
 2004/07/07, 3:30,31,58,28.5,27.3
 2004/07/07, 3:45,30.8,59,28.5,27.3
 2004/07/07, 4:00,30.7,59,28.6,27.3
 2004/07/07, 4:15,30.8,59,28.8,27.4
 2004/07/07, 4:30,30.9,59,28.9,27.4
 2004/07/07, 4:45,30.7,59,29,27.4
 2004/07/07, 5:00,30.7,60,29,27.4
 2004/07/07, 5:15,30.8,59,29,27.4
 2004/07/07, 5:30,30.7,60,29.1,27.5
 2004/07/07, 5:45,30.5,60,29.1,27.5
 2004/07/07, 6:00,30.4,61,29.1,27.5
 2004/07/07, 6:15,30.3,61,29.2,27.5
 2004/07/07, 6:30,30.5,61,29.2,27.5
 2004/07/07, 6:45,30.7,62,29.2,27.3
 2004/07/07, 7:00,31.2,65,29.2,26.5
 2004/07/07, 7:15,31.3,65,29.3,26.1
 2004/07/07, 7:30,31.6,65,29.3,25.7
 2004/07/07, 7:45,31.8,62,29.4,26.1
 2004/07/07, 8:00,31.8,61,29.4,26.4
 2004/07/07, 8:15,31.8,62,29.6,26.6
 2004/07/07, 8:30,31.7,63,29.7,26.4
 2004/07/07, 8:45,31.6,62,29.6,26.5
 2004/07/07, 9:00,31.6,64,29.6,26.7
 2004/07/07, 9:15,31.4,64,29.7,26.7
 2004/07/07, 9:30,31.2,64,29.7,26.8
 2004/07/07, 9:45,31.3,62,29.5,26.9
 2004/07/07,10:00,31.3,64,29.4,27
 2004/07/07,10:15,31.2,64,29.5,27
 2004/07/07,10:30,31.2,63,29.5,27.1
 2004/07/07,10:45,31.5,63,29.7,27.1
 2004/07/07,11:00,31.5,62,29.7,26.6
 2004/07/07,11:15,31.5,61,29.8,26.7
 2004/07/07,11:30,31.6,61,30.1,26.8
 2004/07/07,11:45,31.7,60,30.3,26.9
 2004/07/07,12:00,31.6,60,30.5,27
 2004/07/07,12:15,31.6,60,30.6,27.1
 2004/07/07,12:30,32,60,30.9,27.2
 2004/07/07,12:45,31.9,59,31,26.1
 2004/07/07,13:00,32,58,30.9,26.6
 2004/07/07,13:15,32.1,58,31.2,26.8
 2004/07/07,13:30,32.2,58,31.5,26.9
 2004/07/07,13:45,32.2,58,31.6,27
 2004/07/07,14:00,32,57,31.6,27.1
 2004/07/07,14:15,32,59,31.8,27.2
 2004/07/07,14:30,32,59,32,27.3
 2004/07/07,14:45,32.4,58,32,27.4
 2004/07/07,15:00,32.6,56,32.1,27.5
 2004/07/07,15:15,32.7,56,32.2,26.4
 2004/07/07,15:30,32.9,56,32.3,27.1
 2004/07/07,15:45,33.2,55,32.6,27.3
 2004/07/07,16:00,33.3,54,32.3,27.4
 2004/07/07,16:15,33.4,53,32.3,27.5
 2004/07/07,16:30,33.3,53,32.2,27.7
 2004/07/07,16:45,33.4,53,32.1,25.9
 2004/07/07,17:00,33.7,55,31.9,27.1
 2004/07/07,17:15,33.9,53,31.9,27.3
 2004/07/07,17:30,34,52,32.1,27.4
 2004/07/07,17:45,34.1,52,32.2,27.5
 2004/07/07,18:00,34.3,52,32.1,27.6
 2004/07/07,18:15,34.6,50,31.8,27.1
 2004/07/07,18:30,34.6,51,31.4,27.4
 2004/07/07,18:45,34.3,51,31,27.5
 2004/07/07,19:00,34.2,53,30.7,26.1
 2004/07/07,19:15,34.1,53,30.6,27.3
 2004/07/07,19:30,34,54,30.9,27.4
 2004/07/07,19:45,33.9,54,30.8,27.1
 2004/07/07,20:00,33.9,52,31,27.4
 2004/07/07,20:15,33.7,51,31,27.6